Location: Kra?nica
(53.4833°N, 14.6167°E)
Time: 17:02:54
(UTC+00:00)

Cosmos 2333 - Pass Details

Date: 23 May 2024
Orbit: 829 x 865 km, 70.9° (Epoch: 12 June)

Event Time Altitude Azimuth Distance (km) Brightness Sun altitude
Rises 01:41:45 0° 326° (NW) 3,424 7.6 -7.9°
Reaches altitude 10° 01:44:13 10° 324° (NW) 2,490 6.9 -7.7°
Maximum altitude 01:49:52 65° 244° (WSW) 939 4.3 -7.2°
Drops below altitude 10° 01:55:33 10° 163° (SSE) 2,495 6.3 -6.6°
Sets 01:58:01 0° 161° (SSE) 3,432 7.1 -6.4°
